Niagara Falls, NY

11:26 PM EST on November 11, 2019 (GMT -0500)
Niagara Falls International

Weather History for KIAG - September, 2019

Change the Weather History Date:

Thursday, September 12, 2019

  Actual Average Record
Temperature  
Mean Temperature 60 °F -  
Max Temperature 68 °F 73 °F 82 °F (1999)
Min Temperature 53 °F 53 °F 40 °F (1992)
Degree Days  
Heating Degree Days 4    
Growing Degree Days 10 (Base 50)    
Moisture  
Dew Point 56 °F    
Average Humidity 86    
Maximum Humidity 96    
Minimum Humidity 63    
Precipitation  
Precipitation 0.07 in - - ()
Sea Level Pressure  
Sea Level Pressure 30.19 in    
Wind  
Wind Speed 11 mph (ENE)    
Max Wind Speed 16 mph    
Max Gust Speed -    
Visibility 9 miles    
Events Rain    
Averages and records for this station are not official NWS values.
T = Trace of Precipitation, MM = Missing Value Source: NWS Daily Summary

Daily Weather History Graph

Daily Weather History Graph

Search for Another Location

Airport or City:

Astronomy

Sep. 12, 2019 Rise Set
Actual Time 6:51 AM EDT 7:31 PM EDT
Civil Twilight 6:23 AM EDT 8:00 PM EDT
Nautical Twilight 5:49 AM EDT 8:34 PM EDT
Astronomical Twilight 5:13 AM EDT 9:09 PM EDT
Moon 7:18 PM EDT 5:05 AM EDT
Length of Visible Light 13h 37m
Length of Day
12h 39m
Waxing Gibbous, 98% of the Moon is Illuminated
Sep 12
Waxing Gibbous
Sep 14
Full
Sep 21
Last Quarter
Sep 28
New
Oct 5
First Quarter

Hourly Weather History & Observations

Time (EDT) Temp. Dew Point Humidity Pressure Visibility Wind Dir Wind Speed Gust Speed Precip Events Conditions
1:08 AM 68.0 °F 66.9 °F 96% 30.07 in 10.0 mi Calm Calm - N/A   Overcast
1:45 AM 64.9 °F 63.0 °F 93% 30.06 in 10.0 mi ENE 15.0 mph - N/A   Overcast
1:53 AM 64.9 °F 63.0 °F 93% 30.06 in 10.0 mi ENE 12.7 mph - N/A   Overcast
2:08 AM 64.9 °F 62.1 °F 90% 30.06 in 10.0 mi ENE 16.1 mph - N/A   Overcast
2:53 AM 63.0 °F 61.0 °F 93% 30.06 in 10.0 mi ENE 15.0 mph - 0.00 in Rain Light Rain
3:53 AM 61.0 °F 59.0 °F 93% 30.06 in 10.0 mi ENE 15.0 mph - 0.02 in Rain Light Rain
4:53 AM 60.1 °F 57.0 °F 90% 30.09 in 10.0 mi ENE 12.7 mph - 0.00 in   Overcast
5:53 AM 59.0 °F 57.0 °F 93% 30.11 in 10.0 mi NE 11.5 mph - 0.01 in Rain Light Rain
6:53 AM 57.9 °F 55.9 °F 93% 30.14 in 10.0 mi ENE 13.8 mph - 0.00 in Rain Light Rain
7:53 AM 57.9 °F 55.9 °F 93% 30.16 in 10.0 mi ENE 13.8 mph - 0.00 in   Overcast
8:00 AM 57.9 °F 55.9 °F 93% 30.16 in 10.0 mi ENE 15.0 mph - N/A   Overcast
8:53 AM 57.9 °F 55.9 °F 93% 30.18 in 10.0 mi NE 13.8 mph - N/A   Overcast
9:23 AM 57.9 °F 55.9 °F 93% 30.20 in 3.0 mi ENE 13.8 mph - 0.00 in Rain Light Rain
9:53 AM 57.9 °F 55.9 °F 93% 30.20 in 10.0 mi ENE 16.1 mph - 0.00 in   Overcast
10:53 AM 57.9 °F 55.0 °F 90% 30.22 in 10.0 mi ENE 16.1 mph - 0.00 in   Overcast
11:00 AM 57.9 °F 55.0 °F 90% 30.22 in 10.0 mi ENE 11.5 mph - 0.00 in Rain Light Rain
11:17 AM 57.9 °F 55.0 °F 90% 30.22 in 1.8 mi ENE 16.1 mph - 0.02 in Rain Rain
11:29 AM 57.9 °F 55.9 °F 93% 30.22 in 3.0 mi ENE 13.8 mph - 0.03 in Rain Light Rain
11:53 AM 57.9 °F 55.9 °F 93% 30.22 in 3.0 mi ENE 13.8 mph - 0.03 in Rain Light Rain
12:53 PM 60.1 °F 57.0 °F 90% 30.23 in 10.0 mi ENE 11.5 mph - 0.01 in   Overcast
1:50 PM 62.6 °F 55.4 °F 77% 30.23 in 10.0 mi ENE 11.5 mph - N/A   Overcast
1:53 PM 62.1 °F 55.9 °F 80% 30.23 in 10.0 mi ENE 12.7 mph - N/A   Overcast
2:53 PM 63.0 °F 55.0 °F 75% 30.24 in 10.0 mi ENE 12.7 mph - N/A   Overcast
3:53 PM 63.0 °F 54.0 °F 72% 30.25 in 10.0 mi ENE 11.5 mph - N/A   Mostly Cloudy
4:22 PM 64.0 °F 54.0 °F 70% 30.26 in 10.0 mi East 12.7 mph - N/A   Scattered Clouds
4:53 PM 64.0 °F 54.0 °F 70% 30.26 in 10.0 mi NE 15.0 mph - N/A   Partly Cloudy
5:53 PM 64.0 °F 51.1 °F 63% 30.27 in 10.0 mi ENE 12.7 mph - N/A   Clear
6:53 PM 62.1 °F 51.1 °F 67% 30.28 in 10.0 mi East 11.5 mph - N/A   Clear
8:53 PM 57.0 °F 51.1 °F 81% 30.30 in 10.0 mi East 8.1 mph - N/A   Clear
9:53 PM 55.9 °F 51.1 °F 84% 30.31 in 10.0 mi East 3.5 mph - N/A   Clear
10:53 PM 53.1 °F 50.0 °F 89% 30.32 in 10.0 mi East 4.6 mph - N/A   Clear
11:53 PM 53.1 °F 48.9 °F 86% 30.33 in 10.0 mi ENE 4.6 mph - N/A   Clear